Location: B�hl
(48.6968°N, 8.1352°E)
Time: 11:18:13
(UTC+00:00)

NOSS 3-2 (A) - Pass Details

Date: 08 March 2021
Orbit: 780 x 1427 km, 63.4° (Epoch: 31 March)

Event Time Altitude Azimuth Distance (km) Brightness Sun altitude
Rises 20:05:03 0° 234° (SW) 3,361 6.7 -26.9°
Reaches altitude 10° 20:07:24 10° 238° (WSW) 2,485 6.0 -27.3°
Maximum altitude 20:13:04 60° 319° (NW) 1,070 3.8 -28.1°
Drops below altitude 10° 20:19:42 10° 39° (NE) 2,891 5.9 -29.1°
Sets 20:22:38 0° 43° (NE) 3,954 6.6 -29.5°
